GW3793 Weather Reports


Display with metric or nautical units.
time (UTC)temp
F
wind
direction
speed
MPH
gust
MPH
rain 1hr
in
rain 24hr
in
rain mn
in
humidity
%
barometer
mb
20260509190003 62 172 4.0 8.0 0.00 0.25 0.00 54 1018.1
20260509185403 62 167 4.0 11.0 0.00 0.25 0.00 55 1018.3
20260509184503 62 157 4.0 12.0 0.00 0.25 0.00 49 1018.5
20260509183603 61 164 5.0 10.0 0.00 0.25 0.00 56 1018.4
20260509182703 60 166 4.0 10.0 0.00 0.25 0.00 58 1018.3
20260509182017 60 161 4.0 10.0 0.00 0.25 0.00 64 1018.4
20260509180903 58 162 4.0 12.0 0.00 0.25 0.00 56 1018.5
20260509180217 58 153 4.0 12.0 0.00 0.25 0.00 64 1018.5
20260509175404 57 140 3.0 10.0 0.00 0.25 0.00 59 1018.6
20260509174503 56 153 2.0 5.0 0.00 0.25 0.00 64 1018.7
20260509173603 56 149 2.0 6.0 0.00 0.25 0.00 65 1018.5
20260509172703 55 157 2.0 6.0 0.00 0.25 0.00 71 1018.7
20260509171803 54 156 3.0 7.0 0.00 0.25 0.00 68 1018.7
20260509170903 54 157 3.0 6.0 0.00 0.25 0.00 77 1019.0
20260509170217 54 165 3.0 6.0 0.00 0.25 0.00 74 1018.9
20260509165404 54 169 3.0 6.0 0.00 0.25 0.00 72 1019.0
20260509164503 53 161 3.0 6.0 0.00 0.25 0.00 72 1018.8
20260509163604 52 160 3.0 6.0 0.00 0.25 0.00 80 1019.0
20260509162703 52 165 3.0 6.0 0.00 0.25 0.00 81 1019.0
20260509161803 51 165 3.0 6.0 0.00 0.25 0.00 80 1018.9
20260509160903 51 170 3.0 6.0 0.00 0.25 0.00 85 1019.2
20260509160003 50 172 3.0 6.0 0.00 0.25 0.00 86 1019.3
20260509155403 50 174 3.0 6.0 0.00 0.25 0.00 86 1019.2
20260509154717 49 167 3.0 6.0 0.00 0.25 0.00 87 1019.0
20260509153603 48 159 3.0 6.0 0.00 0.25 0.00 87 1019.3
20260509152703 48 156 2.0 5.0 0.00 0.25 0.00 90 1019.2
20260509151803 47 147 2.0 5.0 0.00 0.25 0.00 91 1019.2
20260509150903 46 160 2.0 5.0 0.00 0.25 0.00 92 1019.0
20260509150003 45 155 2.0 6.0 0.00 0.25 0.00 94 1019.2
20260509145403 44 153 2.0 6.0 0.00 0.25 0.00 94 1019.2
20260509144503 43 158 2.0 6.0 0.00 0.25 0.00 94 1019.5
20260509143603 43 163 2.0 4.0 0.00 0.25 0.00 94 1019.5
20260509142703 42 171 2.0 4.0 0.00 0.25 0.00 94 1019.0
20260509141803 42 172 2.0 5.0 0.00 0.25 0.00 94 1019.3
20260509140903 41 173 2.0 5.0 0.00 0.25 0.00 95 1019.3
20260509140003 41 163 2.0 4.0 0.00 0.25 0.00 95 1019.0
20260509135403 40 159 2.0 4.0 0.00 0.25 0.00 95 1019.2
20260509134717 39 169 1.0 3.0 0.00 0.25 0.00 95 1019.2
20260509133603 39 167 1.0 3.0 0.00 0.25 0.00 95 1019.0
20260509132917 39 146 2.0 6.0 0.00 0.25 0.00 95 1019.2
20260509131803 38 152 1.0 3.0 0.00 0.25 0.00 95 1019.2
20260509131118 38 157 1.0 2.0 0.00 0.25 0.00 95 1018.9
20260509130003 37 119 1.0 2.0 0.00 0.25 0.00 95 1018.9
20260509125403 37 130 1.0 6.0 0.00 0.25 0.00 95 1019.2
20260509124503 37 135 1.0 4.0 0.00 0.25 0.00 95 1018.8
20260509123603 36 112 1.0 4.0 0.00 0.25 0.00 95 1018.7
20260509122704 36 110 0.0 2.0 0.00 0.25 0.00 95 1018.8
20260509121804 36 99 0.0 1.0 0.00 0.25 0.00 95 1018.9
20260509121117 36 76 0.0 2.0 0.00 0.25 0.00 95 1019.0
20260509120004 36 103 0.0 2.0 0.00 0.25 0.00 95 1018.9
20260509115619 36 91 0.0 2.0 0.00 0.25 0.00 95 1019.0
20260509114503 36 107 0.0 2.0 0.00 0.25 0.00 95 1018.8
20260509113603 36 37 0.0 3.0 0.00 0.25 0.00 95 1018.7
20260509112704 37 33 0.0 2.0 0.00 0.25 0.00 95 1018.8
20260509111803 37 39 0.0 2.0 0.00 0.25 0.00 95 1019.0
20260509110903 37 127 0.0 2.0 0.00 0.25 0.00 94 1018.6
20260509110003 38 110 0.0 3.0 0.00 0.25 0.00 94 1018.7
20260509105403 38 158 1.0 3.0 0.00 0.25 0.00 94 1018.6
20260509104503 38 121 1.0 4.0 0.00 0.25 0.00 94 1018.8
20260509103817 38 128 1.0 3.0 0.00 0.25 0.00 94 1018.6
20260509102703 38 56 0.0 2.0 0.00 0.25 0.00 95 1018.7
20260509101803 38 114 0.0 3.0 0.00 0.25 0.00 95 1018.6
20260509100903 38 111 1.0 3.0 0.00 0.25 0.00 95 1018.5
20260509100004 38 122 1.0 2.0 0.00 0.25 0.00 95 1018.3
20260509095403 38 127 0.0 3.0 0.00 0.25 0.00 94 1018.5
20260509094503 38 98 0.0 2.0 0.00 0.25 0.00 95 1018.4
20260509093603 38 74 0.0 2.0 0.00 0.25 0.00 95 1018.4
20260509092703 38 39 0.0 2.0 0.00 0.25 0.00 95 1018.4
20260509091803 38 31 0.0 2.0 0.00 0.25 0.00 94 1018.4
20260509091118 39 56 0.0 2.0 0.00 0.24 0.00 94 1018.0
20260509090003 39 58 0.0 3.0 0.00 0.24 0.00 95 1018.0
20260509085617 39 143 1.0 4.0 0.00 0.24 0.00 95 1018.1
20260509084503 39 92 1.0 3.0 0.00 0.24 0.00 94 1017.8
20260509083603 39 51 0.0 2.0 0.00 0.24 0.00 94 1018.0
20260509082703 39 46 1.0 3.0 0.00 0.24 0.00 94 1018.0
20260509082017 39 63 0.0 2.0 0.00 0.24 0.00 94 1018.0
20260509080904 40 23 1.0 2.0 0.00 0.24 0.00 94 1017.9
20260509080003 40 22 1.0 2.0 0.00 0.24 0.00 95 1017.6
20260509075403 40 22 1.0 2.0 0.00 0.24 0.00 94 1017.9
20260509074716 40 13 0.0 2.0 0.00 0.24 0.00 94 1017.5
20260509073604 41 27 0.0 3.0 0.00 0.24 0.00 93 1017.6
20260509072704 42 48 1.0 2.0 0.00 0.24 0.00 93 1017.5
20260509071803 42 27 1.0 3.0 0.00 0.24 0.00 93 1017.2
20260509070903 42 20 1.0 3.0 0.00 0.24 0.00 92 1017.2
20260509070003 42 32 0.0 2.0 0.00 0.24 0.00 92 1017.4
20260509065403 43 39 0.0 2.0 0.00 0.24 0.24 92 1017.0
20260509064503 43 135 0.0 2.0 0.00 0.24 0.24 92 1016.7
20260509063603 43 158 0.0 2.0 0.00 0.24 0.24 91 1016.8
20260509062703 43 130 1.0 3.0 0.00 0.24 0.24 91 1016.6
20260509061803 43 124 1.0 4.0 0.00 0.24 0.24 91 1016.8
20260509060903 43 127 1.0 4.0 0.00 0.24 0.24 91 1016.6
20260509060003 44 136 0.0 3.0 0.00 0.24 0.24 91 1016.4
20260509055403 44 121 0.0 4.0 0.00 0.24 0.24 91 1016.6
20260509054718 43 103 0.0 3.0 0.00 0.24 0.24 91 1016.7
20260509053817 43 118 2.0 6.0 0.00 0.24 0.24 91 1016.4
20260509052703 43 123 1.0 4.0 0.00 0.24 0.24 91 1016.4
20260509051803 44 129 0.0 2.0 0.00 0.24 0.24 91 1016.4
20260509050903 44 130 1.0 3.0 0.00 0.24 0.24 91 1016.1
20260509050003 44 52 0.0 2.0 0.00 0.24 0.24 90 1016.2
20260509045403 44 52 0.0 2.0 0.00 0.24 0.24 90 1016.2
20260509044503 44 78 0.0 2.0 0.00 0.24 0.24 90 1016.0
20260509043603 44 116 0.0 2.0 0.00 0.24 0.24 90 1016.0
20260509042703 44 137 1.0 2.0 0.00 0.24 0.24 90 1016.0
20260509041803 44 145 2.0 4.0 0.00 0.24 0.24 90 1015.9
20260509040903 44 141 1.0 3.0 0.00 0.24 0.24 89 1015.9
20260509040003 44 149 2.0 6.0 0.00 0.24 0.24 89 1015.7
20260509035403 44 141 1.0 6.0 0.00 0.24 0.24 89 1015.8
20260509034503 44 130 2.0 6.0 0.00 0.24 0.24 88 1015.6
20260509033603 45 127 2.0 5.0 0.00 0.24 0.24 88 1015.8
20260509032703 45 153 2.0 4.0 0.00 0.24 0.24 89 1015.3
20260509031803 45 130 1.0 3.0 0.00 0.24 0.24 88 1015.2
20260509030903 45 82 1.0 5.0 0.00 0.24 0.24 87 1015.1
20260509030003 45 37 4.0 11.0 0.01 0.24 0.24 88 1015.2
20260509025403 45 33 4.0 11.0 0.01 0.24 0.24 89 1015.2
20260509024717 45 35 3.0 14.0 0.02 0.24 0.24 89 1014.9
20260509023603 45 43 4.0 17.0 0.05 0.24 0.24 89 1015.2
20260509022703 46 19 5.0 13.0 0.06 0.24 0.24 89 1015.3
20260509022016 46 23 3.0 13.0 0.07 0.24 0.24 91 1015.1
20260509020903 46 13 3.0 7.0 0.10 0.24 0.24 90 1015.2
20260509020003 46 7 3.0 9.0 0.14 0.24 0.24 90 1015.1
20260509015403 46 12 3.0 9.0 0.17 0.23 0.23 91 1015.1
20260509014503 46 16 2.0 11.0 0.22 0.22 0.22 90 1015.1
20260509013603 46 357 2.0 11.0 0.20 0.20 0.20 89 1015.0
20260509012703 46 351 2.0 10.0 0.19 0.19 0.19 89 1014.9
20260509012018 47 336 1.0 4.0 0.18 0.18 0.18 88 1014.9
20260509010903 47 358 1.0 7.0 0.14 0.14 0.14 88 1014.8
20260509010003 49 328 2.0 7.0 0.10 0.10 0.10 83 1014.8
20260509005403 51 308 3.0 7.0 0.07 0.07 0.07 78 1014.4
20260509004503 55 300 3.0 11.0 0.00 0.00 0.00 62 1013.8
20260509003603 58 177 1.0 5.0 0.00 0.00 0.00 53 1013.4
20260509002704 58 162 1.0 4.0 0.00 0.00 0.00 52 1013.0
20260509001803 58 162 2.0 4.0 0.00 0.00 0.00 52 1012.5
20260509000903 59 163 2.0 4.0 0.00 0.00 0.00 52 1012.8
20260509000003 60 158 2.0 6.0 0.00 0.00 0.00 50 1012.5
20260508235403 60 163 2.0 6.0 0.00 0.00 0.00 50 1012.8
20260508234503 61 165 2.0 6.0 0.00 0.00 0.00 50 1012.4
20260508233603 61 170 2.0 5.0 0.00 0.00 0.00 52 1012.6
20260508232703 61 168 3.0 6.0 0.00 0.00 0.00 50 1012.4
20260508231803 61 178 3.0 6.0 0.00 0.00 0.00 50 1012.6
20260508231117 60 174 3.0 6.0 0.00 0.00 0.00 50 1012.5
20260508230003 60 171 3.0 8.0 0.00 0.00 0.00 53 1012.8
20260508225403 60 170 3.0 8.0 0.00 0.00 0.00 52 1012.5
20260508224717 60 175 3.0 8.0 0.00 0.00 0.00 51 1013.0
20260508223816 60 183 2.0 4.0 0.00 0.00 0.00 50 1012.8
20260508222703 60 179 3.0 6.0 0.00 0.00 0.00 51 1012.4
20260508222017 59 175 3.0 6.0 0.00 0.00 0.00 52 1013.0
20260508220903 59 200 1.0 5.0 0.00 0.00 0.00 51 1012.5
20260508220003 59 201 2.0 8.0 0.00 0.00 0.00 50 1012.5
20260508215403 59 185 2.0 6.0 0.00 0.00 0.00 50 1012.6
20260508214504 59 175 3.0 9.0 0.00 0.00 0.00 50 1012.8
20260508213603 60 187 3.0 9.0 0.00 0.00 0.00 50 1012.8
20260508212917 60 171 4.0 12.0 0.00 0.00 0.00 51 1012.5
20260508211803 61 192 1.0 7.0 0.00 0.00 0.00 48 1012.2
20260508211118 61 171 3.0 8.0 0.00 0.00 0.00 48 1012.3
20260508210003 62 173 3.0 7.0 0.00 0.00 0.00 47 1012.0
20260508205403 62 181 2.0 6.0 0.00 0.00 0.00 47 1012.0
20260508204718 62 184 1.0 5.0 0.00 0.00 0.00 46 1011.9
20260508203603 62 214 1.0 4.0 0.00 0.00 0.00 45 1011.9
20260508202703 62 181 3.0 9.0 0.00 0.00 0.00 43 1012.0
20260508201803 62 174 3.0 8.0 0.00 0.00 0.00 43 1011.9
20260508201117 62 190 2.0 7.0 0.00 0.00 0.00 43 1011.7
20260508200003 63 184 3.0 7.0 0.00 0.00 0.00 41 1011.7
20260508195403 63 195 2.0 7.0 0.00 0.00 0.00 41 1011.7
20260508194718 63 175 4.0 11.0 0.00 0.00 0.00 43 1011.6
20260508193817 63 172 3.0 11.0 0.00 0.00 0.00 44 1011.7
20260508192703 62 174 3.0 9.0 0.00 0.00 0.00 44 1011.6
20260508192018 62 179 3.0 9.0 0.00 0.00 0.00 41 1011.4
20260508190903 62 221 2.0 6.0 0.00 0.00 0.00 41 1011.9